Regional Weather Roundup
Issued by NWS

Home | Current Version | Previous Version | Text Only | Print | Product List | Glossary On
Versions: 1 2 3 4 5 6 7 8 9 10 11 12 13 14 15 16 17 18 19 20 21 22 23 24 25 26 27 28 29 30 31 32 33 34 35 36 37 38 39 40 41 42 43 44 45 46 47 48 49 50
297
ASUS44 KJAN 271603
RWRMS

MISSISSIPPI HOURLY WEATHER ROUNDUP
NATIONAL WEATHER SERVICE JACKSON MS
1100 AM CDT SUN JUL 27 2014

NOTE: "FAIR: INDICATES FEW OR NO CLOUDS BELOW 12,000 FEET WITH NO
SIGNIFICANT WEATHER AND/OR OBSTRUCTIONS TO VISIBILITY.

MSZ001>002-007>008-010>013-018>021-025>028-034>036-271700-
NORTHWEST MISSISSIPPI

CITY           SKY/WX    TMP DP  RH WIND       PRES   REMARKS
CLARKSDALE     FAIR      88  79  74 SW9       30.03F HX 102
CLEVELAND      FAIR      88  80  75 W9        30.04S HX 104
GREENWOOD      SUNNY     87  76  69 SW8       30.05S HX  97
GREENVILLE     MOSUNNY   89  76  65 SW8       30.04S HX 100
GRENADA        FAIR      88  73  62 W12G18    30.05S HX  96
OXFORD         FAIR      86  73  66 W8        30.06R HX  93
TUNICA         PTSUNNY   88  75  66 SW15      30.02S HX  97
$$

MSZ003>006-009-014>017-022>024-029>033-037>039-271700-
NORTHEAST MISSISSIPPI

CITY           SKY/WX    TMP DP  RH WIND       PRES   REMARKS
BELMONT        FAIR      83  76  80 W5        30.05R HX  91
COLUMBUS AFB   SUNNY     90  75  61 W13       30.05S HX 100
CORINTH        FAIR      84  73  70 W10       30.01F HX  91
GOLDN TRIANGLE MOSUNNY   90  73  58 W7        30.06S HX  98
STARKVILLE     FAIR      88  73  62 W7        30.06S HX  96
TUPELO         MOSUNNY   89  74  60 W10       30.03S HX  98
$$

MSZ040-058-271700-
CENTRAL MISSISSIPPI

CITY           SKY/WX    TMP DP  RH WIND       PRES   REMARKS
JACKSON INTL   MOSUNNY   89  75  63 W7        30.09R HX  99
JACKSON HAWKNS SUNNY     88  73  61 W8G17     30.09S HX  95
MERIDIAN KEY   MOSUNNY   88  74  63 W8        30.08S HX  96
MERIDIAN NAS   MOSUNNY   89  74  60 W8        30.07F HX  98
RAYMOND        FAIR      86  82  89 W8        30.09S HX 105
VICKSBURG      SUNNY     90  75  61 VRB5      30.08S HX 100
$$

MSZ059>079-271700-
SOUTH MISSISSIPPI

CITY           SKY/WX    TMP DP  RH WIND       PRES   REMARKS
BROOKHAVEN     FAIR      86  75  70 W7        30.12S HAZE    HX  95
COLUMBIA       FAIR      88  75  66 VRB6      30.09S HX  97
HATTIESBURG    PTSUNNY   87  76  69 W8        30.10S HX  97
MCCOMB         MOSUNNY   86  74  67 W8        30.11S HX  94
NATCHEZ        MOSUNNY   88  75  66 SW7       30.11S HX  97
PINE BELT      MOSUNNY   84  75  74 W7        30.12R HX  92
$$

MSZ080>082-271700-
COASTAL MISSISSIPPI

CITY           SKY/WX    TMP DP  RH WIND       PRES   REMARKS
BAY ST LOUIS   MOSUNNY  N/A N/A N/A NW7       30.10F
BILOXI         MOSUNNY   89  76  65 W2        30.10S HX 100
PASCAGOULA     MOSUNNY   88  74  63 VRB6      30.09F HX  96
GULFPORT       MOSUNNY   92  74  55 NW12      30.09F HX 101
$$



USA.gov is the U.S. government's official web portal to all federal, state and local government web resources and services.